sat.trackr.live / text

‹ back to catalog

STARLINK-6087

NORAD 56801 · 2023-078AL

PAYLOAD ACTIVE UNKNOWN

§ Identity

Operator
Country
US
Launch date
2023-05-31
Launch site
AFWTR
Launch vehicle
Mass (kg)
RCS (m²)

Purposes: comms

External: N2YO · Heavens-Above · Gunter

§ Orbital elements

Epoch: 2026-05-25T02:39:20.503008Z

Period
96.11 min
Inclination
69.9987°
Eccentricity
0.0003719
Mean motion
14.98328637 rev/d
Perigee alt
569.5 km
Apogee alt
574.6 km
Semi-major
6,950.2 km
B*
4.7523e-5
RAAN
131.6512°
Arg perigee
269.0818°
Mean anomaly
90.9915°
Rev number
16,462

§ Raw data

STARLINK-60871 56801U 23078AL  26145.11065397  .00000474  00000+0  47523-4 0  99992 56801  69.9987 131.6512 0003719 269.0818  90.9915 14.98328637164626

JSON: /api/v1/satellites/56801 · /tle

For live sub-satellite position, see the globe view (requires WebGL).

§ Visibility from observer

Set your observer location to see the next 7 days of passes ≥ 10°. The values pass through the URL so the page stays shareable.

No JS? Fill the form by hand. The geolocation button needs JavaScript.